Location: Mat�lon
(46.2791°N, 7.1028°E)
Time: 02:26:52
(UTC+00:00)

H-2A R/B - Pass Details

Date: 18 September 2020
Orbit: 734 x 836 km, 98.2° (Epoch: 29 October)

Event Time Altitude Azimuth Distance (km) Brightness Sun altitude
Rises 19:13:09 0° 186° (S) 3,156 5.0 -17.1°
Reaches altitude 10° 19:15:33 10° 194° (SSW) 2,245 4.3 -17.5°
Maximum altitude 19:20:09 39° 263° (W) 1,117 3.3 -18.2°
Drops below altitude 10° 19:24:53 10° 332° (NNW) 2,306 5.2 -19.0°
Sets 19:27:23 0° 340° (NNW) 3,253 5.9 -19.4°
